Wind_Speed
6 6 7 7 7 6 6 6 6 6 6 6 6 6 6 6 5 5 6 6 6 6 5 5 5 5 5 5 5 5 5 5 5 4 4 3 2 1 3 6 8 9 10 11 12 12 11 11 8 6 7 7 8 10 9 4 2 7 12 13 14 16 18 18 16 16 14 12 8 3 5 8 8 9 7 3 3 2 2 3 6 5 3 2 6 7 9 10
5 6 6 6 6 6 6 6 5 6 6 6 6 6 6 5 5 5 5 5 5 5 4 4 4 4 4 4 5 5 5 5 5 4 4 3 2 1 2 6 7 8 9 10 11 11 12 13 9 7 7 6 6 10 9 4 4 9 14 13 14 18 20 17 15 16 14 12 8 4 5 8 9 10 9 6 6 3 4 6 5 4 4 6 9 9 10 11
6 6 6 6 6 5 5 5 5 5 5 6 6 6 5 5 5 4 4 4 4 4 3 3 3 3 4 4 4 4 4 4 3 5 5 4 4 2 0 3 6 7 9 10 10 11 12 12 8 5 6 7 5 9 8 7 8 9 12 12 15 19 18 14 15 16 13 10 7 5 5 9 11 11 11 9 8 6 6 7 1 3 6 7 9 10 12 13
6 6 6 6 6 5 5 4 4 4 4 5 5 6 5 5 5 4 4 3 3 3 3 3 2 3 3 4 4 3 3 2 3 5 4 4 5 3 1 1 4 7 9 9 10 11 11 11 10 8 9 9 8 7 6 6 7 7 8 11 16 16 13 13 14 15 12 9 5 5 6 10 12 10 11 10 9 8 7 5 5 6 6 6 9 12 13 14
7 7 7 6 6 6 5 5 4 4 4 4 5 6 6 5 5 4 4 3 3 2 2 3 2 3 3 4 4 2 2 1 2 5 3 4 5 4 2 2 2 6 9 8 11 14 14 14 13 12 10 9 9 6 0 3 5 7 9 12 14 12 10 12 13 13 11 8 4 5 7 11 13 11 11 12 10 10 7 6 7 5 6 6 7 12 14 15
8 8 8 7 7 6 6 5 5 4 4 4 5 5 6 6 5 5 4 3 3 2 2 3 3 4 3 5 5 3 2 0 1 4 4 5 4 3 2 2 3 6 8 9 15 18 17 15 13 10 5 7 10 5 4 4 6 7 11 13 10 7 9 11 12 13 11 7 4 4 8 12 14 12 14 15 12 9 6 5 6 5 6 8 9 11 13 14
9 9 9 8 8 7 7 6 5 4 4 4 4 5 5 5 6 6 5 4 3 3 3 3 4 4 4 5 6 5 4 4 4 5 7 7 4 3 2 2 3 6 7 10 17 20 16 12 10 5 4 9 12 4 8 8 6 7 13 13 7 4 6 10 13 12 11 8 2 4 8 12 14 13 14 16 13 9 7 5 6 5 6 9 11 13 13 13
10 10 10 10 9 8 8 7 6 5 4 4 4 5 5 5 6 6 6 5 4 4 4 4 5 5 6 6 6 7 6 6 6 7 8 7 4 2 1 2 3 6 9 12 18 19 14 10 8 5 5 11 12 1 6 6 8 11 13 10 5 3 5 9 13 13 12 9 1 4 7 11 14 14 14 15 14 10 8 7 7 5 5 9 12 14 14 13
11 10 11 11 10 10 9 8 7 6 5 4 4 5 5 5 5 6 6 6 4 4 5 5 5 6 7 7 7 9 7 7 8 9 9 5 3 2 0 2 4 7 10 15 19 18 13 11 9 6 7 11 8 1 1 7 10 10 10 8 7 5 4 7 12 13 13 8 3 4 7 10 11 13 15 15 14 12 11 10 10 7 5 8 12 13 14 13
11 10 11 11 11 11 10 10 9 8 7 5 5 5 5 5 5 6 6 6 6 5 6 6 6 7 8 8 8 9 9 10 11 10 8 5 3 2 1 1 5 7 11 15 19 17 13 11 8 5 6 6 1 2 4 10 10 8 8 8 9 8 4 5 10 12 13 9 3 6 6 8 10 14 18 17 14 14 12 11 11 9 5 6 10 12 14 14
11 11 10 11 11 11 10 10 10 9 8 7 6 5 5 5 6 6 6 7 7 7 7 7 8 8 9 10 9 8 10 12 11 9 6 5 4 2 2 1 5 8 11 16 19 15 10 8 7 2 4 3 3 5 7 8 10 7 7 9 10 11 7 6 9 11 12 9 2 6 6 9 10 15 21 19 16 15 12 12 12 10 6 5 8 11 12 13
11 11 10 10 11 12 11 10 10 10 9 8 8 7 6 6 6 7 7 8 8 9 10 9 10 10 10 9 10 11 12 11 11 9 6 3 4 5 4 2 6 9 12 15 18 13 8 9 7 3 6 6 6 7 8 8 10 7 8 11 12 12 10 8 9 10 10 7 1 5 5 9 11 16 23 20 16 16 13 12 13 12 8 5 7 10 10 10
11 12 11 10 10 11 11 10 10 10 10 9 9 8 8 8 8 8 8 9 10 11 11 11 11 11 10 8 10 13 13 12 10 9 7 2 2 5 3 3 6 10 14 17 18 13 9 11 9 8 9 10 8 7 7 9 10 9 10 13 12 12 11 10 11 9 8 5 3 6 3 8 12 16 23 22 18 17 15 14 13 14 12 7 7 9 9 10
11 11 12 11 9 10 11 11 10 10 10 10 10 10 9 9 9 9 9 10 10 11 11 11 10 11 10 7 10 13 13 13 9 8 9 3 0 1 1 3 6 9 16 21 20 16 11 11 12 10 11 11 9 8 7 9 10 11 12 13 11 10 11 12 13 10 6 6 3 7 4 6 9 12 19 22 21 20 19 17 14 17 16 12 11 11 9 10
11 11 11 12 10 9 11 11 10 11 10 10 10 10 10 10 10 10 10 10 10 11 11 11 10 11 9 6 8 12 12 12 8 8 10 6 1 1 2 5 6 5 14 22 21 16 12 13 14 12 12 12 11 9 8 10 13 14 14 14 12 11 13 13 12 10 6 7 4 7 6 6 5 6 13 19 23 23 23 21 18 18 19 16 15 15 12 11
12 11 11 12 12 10 10 11 10 11 11 10 10 10 10 10 10 10 10 10 11 11 11 11 10 10 9 6 6 7 7 7 7 8 10 6 1 1 3 5 5 4 4 12 17 16 13 13 14 13 13 14 12 9 8 12 16 18 18 17 16 16 16 13 10 10 8 7 6 7 7 5 4 3 9 18 24 26 25 25 23 22 20 19 19 17 16 16
12 12 12 12 12 11 10 10 10 11 11 11 11 11 11 11 11 10 11 12 12 11 11 11 11 10 9 5 3 2 6 6 5 5 7 4 3 3 2 5 4 5 7 5 11 17 14 12 14 14 14 15 13 10 12 15 18 19 19 18 18 18 17 14 11 10 9 7 6 8 7 6 4 3 5 17 25 27 27 26 26 26 23 22 22 19 19 19
12 12 13 13 13 12 11 11 10 11 11 11 11 12 12 12 12 11 12 13 12 12 12 11 10 8 3 2 2 1 4 5 4 4 7 4 4 5 4 5 2 5 7 9 6 14 13 12 14 14 16 19 15 15 17 13 9 12 15 15 14 15 17 16 12 9 9 7 6 8 7 4 3 3 1 14 23 27 29 27 26 27 26 25 24 22 22 22
12 12 13 14 14 12 11 11 10 11 12 12 11 12 13 13 12 12 13 13 12 12 11 10 10 7 4 3 4 4 2 3 5 5 7 4 5 7 6 8 5 6 9 7 3 10 13 12 14 17 21 21 18 19 19 10 7 12 16 17 16 16 16 11 8 8 9 8 4 3 3 1 1 3 3 9 21 26 28 28 27 26 25 25 24 25 24 23
13 12 12 13 14 13 12 11 10 10 11 12 12 12 13 13 14 14 14 13 12 13 13 12 14 11 7 7 7 6 3 3 6 7 7 3 5 7 6 8 9 11 11 6 6 8 11 13 15 19 20 17 15 18 18 14 16 19 20 23 22 19 14 5 7 10 8 7 4 2 1 1 1 4 3 4 16 26 29 29 28 26 24 23 23 24 25 23
14 13 12 13 14 13 12 11 10 9 10 11 11 12 13 13 15 16 16 13 11 12 14 14 15 12 6 10 11 8 4 1 4 6 5 2 5 8 8 6 7 11 8 8 8 5 9 14 14 15 15 12 11 13 16 16 19 20 22 27 24 16 10 5 8 11 8 6 4 3 2 2 4 5 2 3 7 16 24 28 29 26 24 22 22 24 24 22
15 14 12 13 14 12 11 10 10 9 9 10 10 11 12 13 14 16 17 15 10 10 13 13 14 10 4 13 13 11 9 6 5 7 4 4 5 7 9 6 5 7 8 8 7 7 11 10 7 9 11 12 12 13 15 16 20 24 25 25 18 10 7 8 11 13 10 6 6 6 2 3 5 5 3 2 3 4 13 20 24 25 24 23 23 24 24 23
15 14 12 13 14 13 12 10 9 9 9 9 9 10 11 12 13 15 16 17 12 9 11 12 13 9 6 14 15 13 12 8 9 11 9 7 6 6 10 8 5 5 8 9 9 9 10 4 4 3 6 10 12 12 15 20 25 27 26 21 14 10 10 12 14 15 11 5 6 5 3 4 8 7 4 2 3 3 6 12 17 21 23 22 23 23 23 23
14 14 12 12 13 13 12 10 9 9 9 10 9 9 10 9 11 12 14 17 15 8 9 11 11 8 5 13 15 14 12 9 10 11 11 8 5 6 9 9 7 7 8 9 8 11 10 2 2 3 5 9 11 10 15 22 24 21 19 18 15 13 14 13 12 13 11 8 7 7 7 10 12 8 5 6 6 5 5 9 14 18 21 22 23 24 23 23
13 12 12 12 12 12 13 10 8 10 10 10 9 8 8 8 9 11 11 14 14 8 8 9 6 4 7 16 18 14 12 11 9 10 11 9 7 6 6 9 11 11 10 8 8 15 14 6 7 12 12 13 15 14 13 17 21 18 15 16 16 17 16 14 11 14 16 15 13 13 10 8 10 8 7 8 7 6 6 6 10 14 19 23 25 26 26 24
13 11 12 12 10 11 12 10 9 10 9 9 8 7 7 7 8 10 11 12 11 4 2 3 4 4 5 12 17 15 12 8 6 10 13 10 9 7 5 8 11 9 9 9 12 18 16 11 14 19 19 19 20 20 15 13 18 16 11 10 11 13 15 16 15 16 17 13 11 17 14 5 7 7 7 10 7 6 8 5 6 10 13 19 22 24 26 25
14 11 12 12 9 9 11 10 8 9 8 7 7 6 5 6 6 8 9 8 6 4 2 4 7 4 2 6 10 11 7 2 2 10 14 12 12 11 10 10 10 9 8 9 15 20 16 13 16 17 20 23 22 20 14 13 17 10 4 8 8 5 16 19 18 16 11 6 8 18 18 8 7 3 2 8 8 7 11 8 6 8 9 12 15 16 18 19
15 12 11 12 9 8 10 10 9 8 7 6 6 6 4 5 4 5 5 3 3 3 1 2 4 2 4 6 6 5 2 1 2 7 10 11 12 14 15 12 12 12 11 13 19 20 15 14 15 13 16 20 19 17 13 14 19 12 4 7 4 4 17 20 15 13 10 8 12 20 20 9 5 3 2 5 9 9 12 11 8 7 7 8 10 11 13 15
16 12 10 11 9 7 9 9 8 8 5 5 6 5 4 3 2 3 3 1 3 4 2 2 4 4 6 7 9 8 4 2 2 2 6 10 11 13 15 13 12 15 16 19 23 21 17 14 14 13 14 16 16 15 15 16 18 15 10 9 3 1 12 19 15 14 14 13 13 17 20 11 3 6 4 4 9 9 11 13 9 7 6 6 6 6 10 13
16 12 9 10 8 7 8 7 7 8 6 6 6 5 5 3 1 2 1 1 4 5 5 6 7 7 7 6 9 11 7 6 4 3 8 12 11 11 13 11 12 16 18 21 25 25 20 16 15 16 15 14 13 12 13 14 14 15 14 11 8 3 4 11 14 17 14 11 13 15 19 13 4 5 6 5 5 3 9 12 10 10 7 5 6 6 7 9
14 12 8 8 8 7 7 7 7 7 6 6 6 5 4 3 3 2 1 3 4 9 12 9 10 11 7 5 7 11 7 8 10 9 11 15 13 13 13 13 14 16 18 20 23 24 23 20 17 17 14 11 13 13 11 12 12 15 15 11 8 6 4 5 11 17 10 6 12 14 18 14 7 5 4 2 1 4 9 10 9 9 7 6 5 6 7 7
12 10 7 6 7 6 6 7 6 6 5 6 5 5 5 3 4 6 2 6 6 14 18 9 13 12 7 3 3 7 5 6 10 9 10 14 14 13 12 11 12 13 16 18 17 18 20 20 16 16 16 12 13 15 13 13 13 14 15 13 8 4 2 3 5 8 6 8 10 9 15 13 10 7 3 2 4 5 7 7 7 5 5 7 6 6 8 8
10 7 5 4 5 5 6 7 6 6 6 5 5 6 6 3 2 4 6 11 11 17 17 7 10 9 7 4 1 4 6 6 8 9 12 13 14 15 14 12 11 12 14 15 16 16 13 13 14 16 18 17 16 17 17 16 13 11 13 13 10 4 2 2 3 2 6 11 10 6 12 8 6 6 4 4 4 4 4 3 3 4 5 8 8 8 9 9
9 4 3 3 4 5 5 6 6 6 6 6 6 7 7 5 2 5 9 12 14 20 18 8 6 9 8 5 1 2 6 9 9 11 15 16 16 17 16 15 13 13 15 15 16 16 13 12 12 12 16 20 20 18 16 15 13 13 11 9 11 12 7 4 4 3 4 1 4 8 10 6 7 6 6 7 3 3 5 3 4 5 6 9 10 10 11 11
7 3 1 1 2 4 4 6 5 5 6 6 7 8 8 6 4 6 11 16 18 21 18 9 3 11 13 9 6 5 4 8 12 14 16 17 18 19 17 15 12 12 16 16 14 12 13 16 15 13 16 19 24 19 12 14 14 13 12 11 13 15 12 8 6 7 6 5 8 10 10 9 10 5 7 9 4 5 7 6 7 6 7 9 10 12 13 13
6 4 3 2 0 2 3 5 4 4 5 6 7 9 8 6 5 6 13 19 21 20 17 11 4 4 9 9 8 9 10 10 12 16 19 19 19 21 20 18 15 13 16 18 16 11 10 16 17 14 16 15 24 21 13 15 15 11 14 17 16 14 15 15 10 6 5 4 3 9 12 11 10 7 10 10 6 8 10 8 8 6 5 6 8 11 13 13
7 6 6 4 2 1 3 4 4 4 4 5 7 7 7 5 5 9 12 18 19 19 17 13 10 6 4 7 8 7 9 12 15 18 20 19 19 19 20 20 17 17 16 15 19 18 16 18 17 13 15 13 19 20 15 14 14 14 14 13 9 7 13 16 9 2 3 3 3 11 16 15 12 10 14 15 11 12 11 8 8 6 5 5 6 9 11 12
9 9 8 6 3 2 2 3 3 3 3 4 6 5 5 4 5 9 11 15 18 18 15 13 12 10 10 12 10 11 14 8 13 18 17 16 16 15 15 16 16 18 17 15 19 20 19 20 17 13 14 11 16 18 15 14 14 15 14 10 8 5 7 11 7 2 1 1 2 8 14 17 16 13 12 14 15 15 12 10 9 7 6 4 3 6 9 12
9 8 9 7 5 5 3 2 1 1 2 3 5 4 4 4 5 9 12 12 15 18 14 12 13 12 13 14 13 12 13 10 5 10 12 12 15 17 16 16 16 17 16 17 20 20 19 19 17 13 7 7 19 20 17 17 16 14 13 12 12 10 9 10 6 4 4 3 2 4 7 13 18 14 8 7 11 13 12 11 8 7 5 2 3 5 7 10
10 10 11 10 10 11 8 6 6 5 6 6 6 5 6 7 6 8 13 14 14 14 11 10 11 13 15 16 15 14 13 11 10 10 9 9 13 17 13 15 20 21 19 19 19 20 22 21 19 18 10 8 23 24 18 17 17 16 15 14 14 13 13 10 7 9 7 3 4 4 3 12 18 13 7 5 6 7 9 8 6 5 4 1 4 4 5 9
10 13 15 16 16 15 13 11 11 9 10 10 10 9 9 12 11 11 13 12 9 8 6 5 8 10 12 15 16 15 13 12 12 12 12 10 11 13 13 15 18 18 19 24 23 21 23 23 23 21 13 11 21 22 16 12 12 14 15 15 14 13 13 8 6 14 13 5 9 9 4 10 14 10 7 6 4 4 6 5 4 4 2 2 5 5 6 9
7 11 14 15 16 14 10 10 11 11 11 11 11 11 9 9 12 13 9 6 5 6 5 4 7 8 7 12 14 14 13 14 13 11 11 11 11 15 17 15 15 16 10 21 24 22 21 20 21 19 14 13 14 13 13 9 11 14 14 14 14 15 17 11 7 11 10 6 11 11 5 9 14 10 7 7 5 2 3 4 3 3 1 4 6 6 8 10
6 7 8 9 12 9 6 6 7 8 9 8 9 9 7 5 9 10 4 4 7 5 4 6 9 9 10 15 17 16 17 15 12 9 8 11 10 13 16 16 14 15 9 7 15 22 24 19 20 19 17 16 15 14 15 13 11 16 19 17 16 18 19 15 12 11 7 9 13 8 3 8 15 12 8 8 6 2 2 3 3 2 2 6 7 7 8 10
4 4 4 2 8 7 3 3 2 4 5 9 11 9 8 8 9 8 4 8 11 6 5 7 8 9 13 17 18 17 17 13 12 14 12 13 14 14 16 16 16 15 11 13 12 14 25 23 19 15 9 8 9 10 14 15 12 13 18 21 21 19 17 12 9 7 4 11 17 10 5 11 17 15 12 9 6 4 4 3 2 3 3 6 7 8 8 9
5 2 4 2 5 5 1 2 4 7 7 9 10 10 10 11 11 8 6 10 12 7 6 7 6 8 12 16 17 15 13 11 13 16 17 18 19 18 17 17 17 16 12 10 8 4 15 19 18 13 6 4 4 4 5 7 8 12 14 15 17 16 17 15 10 6 3 8 20 15 11 16 20 18 15 11 7 7 6 3 3 4 4 6 7 8 8 7
5 1 2 2 3 3 1 3 5 7 7 8 8 9 8 7 11 10 9 12 12 8 8 8 9 11 11 13 13 11 12 13 14 17 19 22 22 19 17 17 17 18 15 12 7 4 7 10 15 15 13 9 8 7 5 9 11 14 14 11 11 11 12 13 13 13 10 12 20 16 13 17 21 21 18 14 11 8 7 5 3 4 5 7 9 8 8 8
7 5 2 1 4 5 6 8 7 7 6 6 8 8 7 6 9 10 10 11 12 11 11 11 12 11 9 10 11 12 14 16 17 19 22 24 25 22 20 17 18 20 18 14 11 6 6 6 7 12 14 14 14 12 8 7 10 14 15 14 14 14 11 9 11 14 12 14 16 15 14 13 17 21 20 18 15 11 9 8 5 5 5 7 8 9 9 10
10 8 5 4 0 3 6 10 9 6 3 2 5 6 5 7 10 10 10 10 9 11 14 14 14 10 6 9 13 15 17 18 20 20 22 26 29 28 26 22 19 19 18 14 11 8 6 5 4 7 11 15 18 16 11 9 10 15 17 14 13 13 13 13 17 17 9 11 12 14 19 17 16 19 19 18 16 12 11 11 9 8 7 7 8 9 10 11
10 9 7 6 4 2 3 5 5 3 1 2 4 5 7 9 10 10 12 13 12 12 14 16 17 15 12 11 11 13 15 16 18 19 21 25 27 29 31 28 24 20 16 13 9 9 9 4 4 10 13 12 18 20 15 14 15 17 18 16 13 12 13 16 19 16 8 7 9 10 18 20 16 15 17 17 15 12 13 14 13 12 10 9 9 9 10 11
10 9 7 6 4 2 1 2 4 3 4 5 5 6 8 12 13 13 13 15 16 16 16 17 18 19 19 19 16 13 12 13 14 18 21 23 26 28 29 29 28 26 19 14 11 9 11 7 6 11 13 11 13 19 20 18 20 20 19 17 14 13 15 19 19 15 12 11 10 7 17 23 17 14 17 19 17 16 16 16 15 14 13 11 10 10 11 11
11 10 8 6 4 1 2 4 7 7 7 7 8 9 11 14 16 17 16 16 17 19 20 21 22 22 22 23 22 21 19 17 16 18 20 21 24 27 27 28 30 29 25 21 19 14 13 10 10 16 16 12 9 14 19 18 19 22 21 19 16 14 13 15 16 14 15 13 7 3 17 25 20 18 21 22 20 18 17 17 18 17 15 13 11 11 11 11
13 12 10 9 7 3 3 6 9 10 9 10 11 12 14 17 19 20 20 19 19 20 22 23 25 25 24 24 25 26 24 22 22 24 24 23 25 28 30 30 31 30 28 26 25 23 19 17 16 19 21 15 9 11 18 17 15 17 18 17 15 11 10 10 10 11 13 11 5 5 13 21 21 23 26 25 22 21 19 18 17 15 15 15 13 12 11 10
Wind_Direction
322 315 310 307 305 306 307 306 306 306 304 305 304 302 299 297 295 294 294 293 296 299 302 307 308 309 309 316 318 323 333 342 355 352 348 355 357 84 185 200 197 202 197 192 188 181 164 147 144 125 93 43 15 13 17 356 269 241 244 263 298 321 328 339 346 336 327 320 326 301 215 173 172 165 138 134 147 118 166 253 283 286 307 172 171 185 183 167
345 336 328 320 314 312 310 310 307 305 303 304 305 303 302 299 296 294 294 296 300 303 305 308 308 311 311 319 320 327 347 348 10 25 11 18 12 33 182 201 201 198 191 190 187 180 163 154 150 122 103 68 22 359 2 329 276 229 233 263 298 317 326 340 346 332 324 320 314 279 215 174 175 182 175 176 167 150 198 232 269 256 217 170 165 174 173 160
355 351 346 340 333 327 322 320 312 307 301 300 301 302 302 299 298 295 296 299 303 308 308 308 308 310 310 317 319 333 356 356 39 39 20 34 42 28 300 202 203 191 185 188 179 171 164 163 170 134 95 73 35 351 333 286 271 232 234 269 302 319 333 344 342 334 330 322 301 257 219 185 181 190 192 190 179 175 207 222 196 145 169 165 161 164 166 158
354 352 351 349 346 342 338 333 322 314 303 299 299 298 300 298 298 295 297 299 305 315 307 306 301 301 307 308 314 335 353 14 39 16 16 47 52 55 58 178 200 185 185 182 157 157 161 164 165 131 93 75 60 11 323 261 240 236 255 292 315 331 346 345 335 338 338 323 293 233 215 193 186 192 197 195 190 186 201 196 125 118 152 158 155 159 164 159
352 350 349 348 348 347 345 343 337 329 315 306 298 294 296 294 294 291 295 300 305 316 302 298 290 291 296 291 298 312 330 68 19 346 6 42 44 54 72 126 176 185 186 165 145 146 142 140 135 113 93 73 46 22 136 186 230 259 293 314 329 346 353 341 334 344 346 328 297 227 202 188 183 187 188 187 191 195 201 175 135 118 145 150 149 157 164 160
353 350 348 346 346 345 344 346 344 340 329 314 302 295 293 292 294 291 291 298 303 310 295 287 278 279 283 282 290 286 275 314 331 325 357 11 21 36 58 122 146 183 181 152 146 142 134 132 124 102 71 34 5 332 202 226 267 285 315 327 343 358 353 342 340 350 351 336 301 228 196 181 175 178 183 183 187 195 200 178 142 126 147 151 150 155 162 160
352 350 348 346 344 343 342 344 343 342 336 321 308 297 294 292 292 293 293 298 303 302 291 282 278 277 281 281 288 290 274 268 286 313 336 344 350 8 30 131 152 177 171 151 148 144 140 137 122 92 12 358 352 311 215 242 285 327 334 344 1 347 342 346 348 352 353 347 306 216 194 180 172 175 186 186 188 191 189 178 150 136 146 150 151 155 159 157
349 347 345 343 342 342 341 341 341 340 335 327 316 304 299 296 295 297 298 301 307 304 296 290 289 290 291 290 296 298 286 281 292 302 311 323 330 331 10 138 160 167 162 154 152 151 145 133 113 79 18 355 350 323 196 259 308 336 339 351 5 324 328 344 351 352 351 358 7 195 188 182 176 177 186 190 192 190 186 181 165 160 156 153 153 153 157 159
343 343 341 339 338 338 338 338 338 338 334 328 320 312 304 301 301 302 303 308 311 306 302 300 301 302 302 302 304 302 301 295 288 291 300 317 337 316 306 141 164 172 165 157 157 157 146 123 98 53 13 357 354 116 76 331 324 335 332 332 334 322 325 343 352 353 350 6 82 148 174 184 182 179 179 188 193 180 182 184 172 180 175 161 163 156 156 162
338 338 336 335 334 334 335 333 333 334 333 329 321 312 306 302 300 300 303 306 309 306 305 305 306 307 306 308 315 313 298 287 287 297 309 319 336 329 322 167 177 178 165 161 161 156 138 120 102 64 356 357 64 208 323 333 334 345 329 322 325 322 328 344 352 354 351 2 93 139 160 177 182 178 173 180 187 175 180 183 172 185 195 173 172 162 160 165
333 332 332 331 328 328 330 328 327 328 328 326 320 312 306 303 298 297 297 300 303 301 301 303 303 304 306 311 316 304 285 283 293 306 309 309 324 326 328 271 188 177 166 165 160 145 124 121 124 108 327 314 204 262 286 307 329 344 334 333 332 327 327 327 347 356 351 353 103 151 163 174 177 176 174 178 184 178 178 176 171 181 188 179 176 168 168 170
330 328 327 326 324 322 323 324 321 321 321 319 317 311 305 301 296 292 289 292 292 293 296 297 299 299 304 312 304 290 289 294 297 306 309 302 320 324 316 248 194 174 166 163 153 141 137 153 165 230 273 250 236 281 278 287 311 313 317 326 329 328 324 321 338 350 346 343 142 159 178 181 174 174 178 181 181 183 181 173 172 177 178 175 179 179 177 175
327 325 323 322 320 316 317 318 315 314 315 312 312 307 302 298 292 288 285 285 285 287 290 292 296 297 305 313 297 291 298 299 298 311 316 288 306 331 307 219 192 177 162 157 159 164 168 170 187 223 234 230 237 265 273 292 300 290 298 307 313 316 316 322 326 331 334 325 160 153 190 184 175 174 182 188 184 182 183 180 176 175 183 187 183 186 181 184
324 321 319 319 317 312 311 313 312 310 310 308 307 305 302 297 292 288 285 284 283 283 286 291 296 298 308 313 292 294 300 302 309 314 314 311 129 357 291 174 170 184 168 161 171 179 179 186 198 209 215 217 223 236 264 294 286 276 285 290 294 297 303 314 312 310 312 298 183 139 119 147 167 179 188 196 190 181 181 186 185 177 184 190 188 193 189 196
322 317 315 314 314 311 307 309 309 307 307 305 304 303 300 296 294 291 288 286 283 283 285 291 297 299 310 314 289 293 301 309 319 303 302 314 343 8 202 155 133 163 172 175 183 185 190 202 200 205 215 210 211 226 252 274 269 268 274 277 278 281 291 299 300 295 283 275 228 152 126 117 134 181 198 200 192 185 182 184 186 181 187 191 190 196 195 205
323 317 312 309 309 307 303 305 305 303 304 302 301 300 297 295 292 291 289 286 283 284 289 293 296 299 307 315 295 301 327 330 314 295 299 305 358 102 161 132 88 64 157 190 198 198 204 208 200 207 214 202 201 220 253 262 258 263 267 269 272 274 280 284 287 282 262 258 232 182 159 136 104 134 203 203 193 191 188 185 186 185 189 192 195 198 193 200
321 317 312 308 306 304 301 301 302 300 300 300 299 298 295 293 292 293 289 286 287 290 295 295 295 297 300 301 270 330 15 352 316 322 329 320 158 160 131 96 47 343 338 303 216 205 208 206 202 206 203 193 192 215 247 254 250 253 255 259 267 270 272 271 272 267 248 239 215 201 192 160 103 53 199 201 196 194 193 192 190 189 189 192 199 200 194 199
318 315 311 308 305 303 301 299 299 298 297 297 297 295 294 294 294 295 289 288 293 294 295 295 296 300 287 220 222 277 19 351 323 8 2 340 178 171 133 124 292 298 306 308 237 203 203 200 203 205 198 193 195 216 233 241 243 243 244 256 272 273 273 273 268 260 251 237 199 206 217 164 112 18 216 196 197 196 198 198 196 194 193 196 202 200 199 205
312 310 307 304 303 303 301 297 297 294 295 294 292 292 292 294 295 292 289 292 295 290 290 291 291 284 220 230 272 262 287 316 307 341 358 338 184 173 153 162 205 243 256 274 212 188 192 187 197 201 198 198 200 212 223 231 256 263 263 270 284 287 286 283 256 246 253 245 199 176 232 144 89 350 6 188 194 195 198 201 200 201 202 203 206 203 203 209
305 303 301 298 297 300 300 299 297 292 292 291 291 292 290 292 292 288 286 291 291 282 282 289 291 285 252 239 244 240 258 311 313 340 354 328 180 179 184 168 191 228 237 219 155 169 190 194 201 198 196 202 203 208 222 240 260 268 271 272 279 286 286 260 212 229 241 238 205 118 283 263 259 316 9 161 190 196 199 201 201 204 207 208 209 207 207 209
302 299 297 293 292 295 296 297 298 295 290 287 290 292 290 292 292 289 289 287 281 273 276 282 287 292 255 211 211 218 233 259 299 329 346 292 180 176 191 181 204 222 200 166 157 171 212 219 218 204 195 206 212 218 236 255 266 270 274 273 272 274 268 217 208 223 225 228 202 167 275 257 243 288 341 130 181 197 202 205 205 206 208 211 214 213 212 213
301 298 296 290 289 290 290 292 293 294 290 286 289 290 290 294 293 296 299 292 277 271 275 271 276 294 223 200 208 214 219 201 223 269 284 249 228 192 192 199 213 193 156 163 184 213 233 232 229 213 206 222 231 236 249 260 267 270 272 268 259 245 215 193 210 219 215 217 202 198 281 286 236 266 307 85 106 179 204 207 208 209 210 213 216 216 216 217
302 301 297 289 286 286 286 285 283 284 286 285 286 284 286 292 295 302 307 302 296 291 284 269 268 281 203 198 214 219 226 215 207 239 262 251 249 222 203 197 188 176 166 179 192 216 226 181 114 194 224 250 254 253 259 263 267 270 266 256 247 237 216 204 207 211 212 202 193 211 260 255 238 248 247 163 110 126 188 199 204 210 213 215 217 219 221 221
303 302 298 288 283 282 283 282 279 276 276 281 286 286 282 288 295 300 305 304 305 305 284 272 270 276 196 191 214 223 233 240 215 230 256 251 240 233 215 195 193 208 190 179 189 221 233 175 115 241 248 262 270 272 266 264 269 274 267 257 260 261 252 248 223 195 201 214 210 215 223 235 243 250 225 177 159 158 177 195 202 210 214 217 221 220 222 225
304 302 297 288 279 279 281 280 278 272 272 284 297 302 295 292 292 298 309 310 311 306 270 267 262 246 178 187 208 217 229 242 229 234 250 246 241 248 224 198 206 212 199 197 218 238 256 291 274 261 260 257 258 265 268 266 272 282 276 264 270 272 262 251 218 181 195 217 219 212 214 242 252 249 226 195 176 176 187 197 204 211 216 219 222 221 223 227
305 302 295 287 277 274 275 277 275 271 277 293 306 313 306 297 293 308 324 318 318 339 239 219 152 161 187 195 203 208 223 241 235 239 246 243 244 254 239 215 216 210 203 224 246 252 267 291 276 264 265 261 256 262 266 264 275 290 285 268 282 277 242 218 206 189 195 212 214 211 212 248 267 253 226 213 196 189 202 204 202 210 216 220 223 224 226 228
305 302 293 287 278 264 266 273 268 264 272 285 296 300 296 297 307 328 333 316 321 20 88 138 129 127 144 171 191 201 210 226 199 225 235 233 232 239 243 239 240 232 221 243 253 254 266 286 285 272 261 257 254 258 257 250 263 274 268 278 300 246 206 207 214 206 197 196 198 208 214 241 267 257 195 214 210 206 210 207 204 208 210 217 222 224 227 227
304 303 291 286 281 256 256 266 263 261 264 275 290 293 296 306 322 339 337 327 339 360 25 141 142 140 165 179 219 234 205 69 196 210 220 220 216 231 244 248 258 256 247 255 255 251 256 275 293 284 257 250 248 251 247 246 253 246 259 299 315 189 196 199 211 215 208 199 196 204 210 233 261 205 125 212 223 227 211 197 203 214 204 208 216 221 222 226
303 303 289 282 280 256 248 256 263 264 252 260 277 280 291 298 306 318 312 356 354 339 321 238 209 203 198 209 240 253 239 221 248 229 217 215 209 226 247 252 259 263 253 251 257 258 253 262 289 286 259 252 254 254 244 244 248 247 277 296 282 213 195 191 197 208 205 203 205 203 203 211 232 194 187 224 242 245 207 189 196 207 204 209 212 207 207 217
300 299 288 278 275 256 244 244 254 258 245 243 252 263 276 260 243 297 292 344 345 335 299 257 224 215 225 242 244 244 236 202 223 278 236 228 223 225 243 259 264 262 251 244 249 255 251 254 271 268 257 257 262 262 244 241 245 246 267 276 256 263 201 200 204 199 196 215 231 218 202 201 197 196 215 245 261 232 181 179 185 192 200 210 207 199 191 200
301 292 285 275 268 254 240 237 243 248 246 240 239 254 252 221 229 215 107 349 335 334 317 270 220 217 238 292 252 236 233 211 228 255 237 224 224 226 234 251 258 258 257 250 245 249 250 254 258 245 240 251 257 259 247 240 248 251 255 254 237 223 217 233 203 192 193 249 249 221 198 199 208 211 221 237 215 155 162 165 167 181 194 200 201 208 207 203
306 288 282 270 260 249 231 229 236 236 240 237 229 240 232 215 242 228 276 358 355 343 332 280 219 216 230 302 257 220 221 222 232 240 230 220 221 232 244 253 254 251 258 258 256 264 259 251 247 234 228 235 245 247 241 239 250 253 242 228 217 200 199 255 216 201 223 264 266 210 183 199 226 231 219 149 153 151 147 145 153 172 194 207 215 217 218 215
314 291 284 268 251 241 226 222 232 234 236 236 228 235 225 200 239 258 325 355 356 351 347 293 232 213 211 240 208 177 182 203 225 209 209 226 235 247 259 266 261 251 257 264 272 287 279 252 246 242 235 228 230 237 235 232 232 232 226 216 208 176 113 262 255 275 268 275 284 200 172 187 204 205 199 158 136 142 144 132 158 187 208 223 230 221 215 214
326 316 304 276 236 226 221 216 228 237 234 234 232 230 221 214 260 360 1 354 348 351 356 333 243 204 216 259 273 166 163 181 208 201 204 226 240 246 253 260 261 255 259 265 268 273 279 275 261 255 255 238 226 232 233 226 222 225 228 230 222 206 196 213 216 240 243 283 61 138 162 176 167 174 189 175 164 182 180 184 202 215 228 232 232 218 206 205
346 1 2 298 222 214 220 215 223 238 231 232 234 229 229 240 275 353 4 359 352 350 353 352 237 214 231 250 243 243 210 186 198 203 211 227 238 243 249 257 261 256 251 250 261 267 264 271 269 278 291 259 229 224 222 223 225 224 229 241 237 222 217 225 234 242 219 124 100 130 156 182 184 189 193 183 204 214 195 209 230 248 255 243 235 218 202 200
15 30 41 39 113 191 211 216 224 241 235 233 237 240 246 259 294 336 360 8 5 355 350 350 350 222 230 251 257 255 256 234 206 207 218 228 243 250 252 260 262 256 249 242 251 256 253 275 284 292 306 271 230 222 212 216 217 211 224 235 241 243 244 248 251 236 180 115 114 141 141 161 173 180 192 192 211 213 208 230 243 258 274 255 241 222 204 202
45 56 65 63 54 157 195 201 216 242 243 240 241 252 267 278 330 345 357 7 360 350 349 346 350 5 358 333 329 334 306 258 221 218 225 227 241 253 257 265 264 256 255 252 254 254 259 281 292 290 298 279 232 222 222 220 207 200 215 227 243 258 244 241 247 238 139 91 148 161 153 162 168 173 190 197 209 215 220 241 243 250 284 278 248 225 207 200
69 75 77 75 59 75 170 184 204 247 268 270 265 277 289 293 358 2 1 2 346 336 342 349 344 334 341 349 337 342 349 309 226 226 236 232 241 263 273 274 267 257 255 253 254 255 255 269 285 293 295 267 217 212 220 215 204 214 232 250 265 264 233 230 237 264 205 104 164 167 163 176 188 189 193 204 215 218 229 247 248 258 292 297 234 213 204 195
65 67 70 73 66 68 81 131 153 282 327 338 320 327 326 328 25 25 12 356 331 324 326 336 342 320 316 336 330 323 342 349 302 256 260 259 256 267 283 285 274 262 252 244 248 251 246 252 273 292 303 215 199 206 213 205 202 224 244 255 257 254 256 248 225 201 184 151 163 156 168 198 205 208 222 229 221 223 242 254 251 264 288 289 168 186 200 191
43 49 61 70 67 66 67 73 73 54 39 22 359 5 4 355 19 26 3 344 326 324 315 307 329 322 306 315 329 330 321 319 326 308 300 312 286 276 302 319 295 271 251 239 243 246 237 236 255 276 291 216 203 207 213 206 204 217 230 242 244 238 246 252 234 227 224 155 139 142 200 213 206 211 233 224 207 229 255 259 245 261 282 191 149 158 173 174
41 48 60 73 71 63 59 58 54 45 40 26 4 358 351 346 353 351 341 341 333 320 305 293 313 316 311 319 335 345 327 303 308 311 305 316 314 307 324 339 326 301 258 237 236 239 236 233 244 262 271 220 206 211 220 227 236 235 232 239 239 232 240 246 229 231 234 205 168 168 198 207 195 199 211 202 207 233 251 260 247 258 279 149 149 146 153 164
63 62 66 81 80 61 47 52 44 26 22 14 354 344 334 339 356 346 329 355 350 296 276 286 297 294 301 316 329 345 338 308 297 306 305 300 321 335 320 309 336 346 284 239 238 235 233 234 236 246 255 237 232 241 243 255 279 271 253 240 239 244 247 246 234 230 229 199 179 174 172 183 180 178 185 201 222 237 250 266 254 245 216 136 149 156 161 169
80 76 72 98 103 81 50 67 52 16 360 336 318 318 307 313 344 336 315 1 358 323 284 286 292 293 293 298 307 325 335 321 299 298 300 289 303 333 316 289 306 342 351 307 274 240 224 226 230 241 255 254 256 263 257 250 259 272 266 245 238 244 244 253 269 259 223 168 165 152 124 177 177 172 174 190 202 201 226 233 220 227 164 135 147 162 171 178
38 37 11 72 124 117 70 62 19 338 317 289 282 286 277 275 314 333 335 327 332 354 358 319 293 290 296 293 290 302 322 321 301 297 291 282 286 296 294 281 290 319 353 9 340 244 219 220 225 236 256 262 257 252 252 247 246 280 278 249 242 245 238 251 270 256 208 172 170 159 162 184 181 180 184 189 191 180 178 182 186 201 170 148 154 164 176 186
19 342 314 343 136 144 84 351 303 299 292 289 293 297 282 264 279 308 315 305 311 333 346 325 292 285 291 281 271 284 308 301 293 299 287 277 282 285 282 277 280 299 320 349 358 249 228 228 224 226 220 225 256 238 256 279 283 306 295 258 253 251 242 247 242 235 283 186 177 173 172 176 179 183 187 191 188 177 174 173 176 182 174 167 170 172 176 183
31 18 265 253 193 193 251 272 290 302 300 314 335 337 325 293 275 276 273 278 283 288 300 295 276 275 282 279 277 293 306 290 287 296 289 284 289 293 293 291 285 289 303 321 321 286 278 254 226 221 218 224 251 252 285 322 312 306 302 292 298 292 269 263 251 250 253 194 181 184 177 173 180 184 185 184 174 164 168 170 170 175 166 167 177 184 184 184
13 17 23 253 224 224 230 241 270 308 313 334 356 356 351 330 290 267 257 267 274 271 274 276 272 278 298 313 319 323 309 290 280 283 287 286 285 285 286 287 287 284 286 305 319 317 316 298 240 220 220 229 244 249 260 299 316 318 311 303 309 313 310 300 286 277 250 204 192 192 191 198 195 185 180 177 168 161 171 173 168 167 159 164 177 184 186 189
359 1 10 23 342 217 224 235 256 291 297 319 345 331 303 294 291 276 253 252 270 278 274 269 262 265 294 321 331 334 320 298 280 279 286 284 277 274 273 271 275 281 278 283 312 347 350 328 312 272 249 236 236 241 250 263 287 313 316 314 315 311 310 311 313 315 284 232 228 207 202 218 211 183 173 174 171 169 177 175 168 168 166 167 173 176 181 186
360 359 359 7 8 330 270 248 249 279 245 236 296 295 273 273 280 281 270 260 264 278 283 278 270 264 266 281 308 335 335 317 297 290 292 293 287 281 280 281 277 275 279 275 287 343 354 348 346 319 297 260 234 232 241 255 269 290 304 313 316 306 310 317 319 328 321 271 279 247 217 219 214 186 170 167 166 168 178 180 173 171 170 167 169 170 174 182
2 4 2 359 356 338 280 216 204 210 216 230 260 267 265 271 268 267 276 281 282 284 287 286 282 278 277 280 286 300 312 310 302 293 289 293 295 288 286 290 284 274 277 276 270 319 344 338 354 345 322 293 254 241 245 255 266 278 291 301 306 302 310 323 326 325 315 306 324 300 227 214 200 177 166 164 167 175 184 186 180 175 174 171 171 172 173 181
358 359 0 355 351 352 189 206 217 228 232 238 256 265 268 275 274 269 273 282 289 291 290 290 289 285 282 284 283 278 275 277 281 282 280 283 288 286 284 288 289 284 283 278 269 289 321 321 338 350 336 316 291 266 265 269 270 273 279 289 301 307 314 325 328 321 311 307 322 260 224 211 187 167 169 171 176 187 190 186 182 180 181 182 181 179 177 180
354 354 356 352 345 325 242 241 250 256 261 263 266 272 274 277 280 284 285 283 281 281 282 284 285 281 277 278 278 274 270 270 272 271 270 270 272 275 277 281 287 289 288 284 278 284 299 303 316 337 334 321 316 294 286 287 280 271 272 280 294 309 311 312 312 313 318 313 285 213 218 211 188 173 177 179 184 191 190 186 185 183 184 189 190 189 186 183
Height
3184 3183 3183 3183 3183 3182 3182 3182 3182 3182 3181 3181 3181 3181 3180 3180 3180 3180 3180 3180 3179 3179 3179 3179 3179 3179 3179 3179 3179 3178 3178 3178 3179 3178 3178 3179 3179 3179 3179 3179 3180 3180 3181 3182 3183 3184 3186 3186 3187 3187 3187 3186 3186 3187 3187 3187 3187 3187 3187 3187 3186 3184 3182 3181 3180 3179 3178 3177 3177 3178 3177 3178 3179 3180 3179 3178 3178 3178 3179 3179 3179 3180 3180 3180 3181 3181 3181 3182
3184 3183 3183 3182 3182 3182 3182 3181 3181 3181 3181 3180 3180 3180 3180 3179 3179 3179 3179 3179 3179 3179 3179 3179 3178 3178 3178 3178 3178 3178 3178 3178 3178 3178 3178 3178 3178 3178 3178 3178 3179 3180 3180 3181 3182 3183 3185 3186 3186 3186 3186 3185 3184 3185 3186 3186 3187 3187 3187 3187 3185 3183 3181 3180 3179 3178 3177 3176 3176 3176 3177 3178 3179 3179 3179 3179 3179 3179 3179 3179 3180 3180 3180 3180 3181 3181 3182 3182
3183 3183 3182 3182 3182 3181 3181 3181 3181 3180 3180 3180 3180 3179 3179 3179 3179 3179 3179 3178 3178 3178 3178 3178 3178 3178 3178 3178 3178 3178 3178 3178 3178 3178 3177 3177 3177 3177 3178 3178 3178 3179 3180 3180 3181 3183 3184 3185 3186 3186 3185 3184 3184 3185 3186 3186 3186 3186 3187 3186 3184 3183 3180 3179 3178 3177 3176 3175 3175 3175 3176 3177 3178 3179 3179 3179 3179 3179 3179 3180 3180 3181 3181 3181 3181 3181 3182 3183
3183 3183 3182 3182 3181 3181 3181 3180 3180 3180 3180 3179 3179 3179 3179 3178 3178 3178 3178 3178 3178 3178 3178 3178 3178 3178 3178 3178 3177 3178 3178 3177 3178 3177 3177 3177 3177 3177 3177 3177 3178 3178 3179 3180 3181 3183 3184 3184 3185 3186 3185 3185 3185 3186 3186 3186 3186 3186 3186 3185 3184 3182 3180 3178 3178 3177 3175 3174 3174 3174 3175 3176 3178 3178 3179 3179 3179 3179 3179 3180 3180 3181 3181 3181 3181 3181 3182 3183
3183 3183 3182 3182 3181 3181 3180 3180 3180 3179 3179 3179 3179 3178 3178 3178 3178 3177 3178 3178 3178 3178 3177 3177 3177 3177 3177 3177 3177 3178 3178 3177 3178 3177 3177 3176 3176 3176 3176 3177 3177 3178 3179 3180 3181 3182 3183 3185 3185 3185 3185 3185 3186 3186 3186 3186 3186 3186 3185 3184 3183 3181 3179 3178 3177 3176 3174 3173 3173 3173 3174 3175 3177 3178 3178 3178 3178 3179 3179 3179 3180 3181 3182 3182 3182 3182 3182 3183
3183 3182 3182 3181 3181 3180 3180 3180 3179 3179 3179 3179 3178 3178 3178 3177 3177 3177 3177 3177 3177 3177 3177 3177 3177 3177 3177 3177 3177 3177 3177 3177 3177 3177 3177 3176 3176 3176 3176 3176 3177 3177 3179 3180 3181 3182 3183 3184 3184 3184 3184 3184 3185 3186 3186 3186 3186 3185 3184 3183 3182 3180 3179 3178 3177 3175 3173 3172 3172 3173 3173 3175 3177 3177 3177 3178 3178 3179 3179 3179 3180 3181 3182 3182 3182 3182 3183 3184
3183 3182 3181 3181 3180 3180 3180 3179 3179 3179 3178 3178 3178 3178 3177 3177 3177 3177 3177 3177 3177 3177 3177 3176 3176 3176 3176 3176 3176 3177 3177 3176 3176 3176 3176 3176 3176 3176 3175 3176 3176 3177 3178 3180 3181 3182 3183 3183 3183 3183 3183 3183 3185 3185 3185 3185 3185 3185 3184 3182 3181 3180 3179 3178 3176 3175 3173 3171 3171 3172 3173 3174 3176 3176 3177 3178 3179 3179 3179 3179 3180 3181 3182 3182 3183 3183 3184 3184
3183 3182 3181 3181 3180 3179 3179 3179 3178 3178 3178 3178 3177 3177 3177 3177 3177 3176 3176 3176 3176 3176 3176 3176 3176 3176 3176 3176 3176 3176 3176 3176 3176 3175 3176 3175 3175 3175 3175 3175 3175 3176 3177 3179 3180 3181 3182 3182 3182 3182 3182 3183 3185 3185 3185 3185 3185 3184 3183 3182 3181 3180 3180 3179 3176 3175 3173 3171 3170 3171 3173 3174 3176 3176 3177 3178 3179 3179 3179 3178 3179 3181 3182 3183 3183 3183 3184 3184
3183 3182 3181 3180 3180 3179 3179 3178 3178 3178 3177 3177 3177 3177 3177 3176 3176 3176 3176 3176 3176 3176 3175 3175 3175 3175 3175 3175 3175 3175 3175 3175 3175 3175 3175 3174 3174 3174 3174 3174 3175 3175 3176 3178 3179 3180 3181 3181 3182 3182 3182 3184 3185 3185 3185 3185 3184 3183 3182 3182 3181 3180 3180 3178 3177 3175 3174 3171 3170 3171 3173 3174 3176 3177 3177 3177 3178 3178 3178 3179 3179 3180 3181 3182 3183 3184 3184 3185
3182 3182 3181 3180 3179 3179 3178 3178 3177 3177 3177 3176 3176 3176 3176 3176 3176 3175 3175 3175 3175 3175 3175 3175 3175 3175 3174 3174 3175 3175 3174 3174 3174 3174 3174 3173 3173 3174 3174 3174 3174 3175 3176 3177 3178 3179 3181 3181 3182 3182 3182 3184 3185 3185 3185 3184 3184 3182 3182 3181 3180 3180 3179 3178 3177 3175 3174 3172 3171 3171 3173 3174 3175 3176 3177 3177 3177 3178 3178 3179 3179 3179 3180 3181 3182 3183 3184 3185
3182 3181 3181 3180 3179 3178 3178 3177 3177 3176 3176 3176 3176 3175 3175 3175 3175 3175 3175 3174 3174 3174 3174 3174 3174 3174 3174 3174 3174 3173 3173 3173 3173 3173 3173 3173 3173 3173 3173 3173 3173 3174 3175 3177 3178 3180 3180 3180 3181 3181 3182 3183 3184 3184 3184 3184 3183 3182 3182 3181 3180 3179 3178 3178 3177 3176 3174 3173 3172 3172 3173 3173 3174 3176 3176 3177 3177 3178 3178 3178 3178 3179 3180 3180 3181 3182 3183 3185
3182 3181 3180 3180 3179 3178 3177 3177 3176 3176 3176 3175 3175 3175 3175 3174 3174 3174 3174 3173 3173 3173 3173 3173 3173 3173 3173 3173 3172 3171 3171 3172 3172 3173 3173 3172 3172 3172 3173 3172 3173 3173 3175 3177 3178 3179 3179 3179 3179 3179 3181 3182 3183 3183 3183 3183 3182 3182 3181 3180 3179 3178 3178 3177 3177 3176 3175 3174 3172 3172 3172 3173 3173 3175 3176 3176 3177 3177 3178 3178 3179 3179 3180 3180 3181 3182 3183 3184
3181 3180 3179 3179 3178 3178 3177 3176 3176 3175 3175 3174 3174 3174 3174 3173 3173 3173 3173 3173 3172 3172 3172 3172 3172 3172 3172 3172 3171 3170 3170 3170 3171 3172 3172 3172 3171 3171 3172 3172 3172 3173 3174 3176 3177 3177 3177 3177 3178 3179 3180 3181 3181 3182 3182 3182 3181 3181 3181 3179 3178 3177 3177 3177 3176 3176 3175 3174 3173 3172 3172 3172 3173 3174 3175 3175 3176 3177 3177 3178 3179 3179 3180 3180 3181 3182 3182 3183
3181 3180 3179 3178 3178 3177 3176 3176 3175 3175 3174 3174 3173 3173 3173 3172 3172 3172 3172 3171 3171 3171 3171 3170 3171 3170 3171 3171 3170 3169 3168 3168 3170 3170 3170 3171 3171 3171 3172 3171 3172 3172 3173 3175 3175 3175 3176 3176 3177 3178 3179 3180 3181 3181 3181 3181 3181 3181 3180 3179 3178 3177 3176 3176 3175 3175 3175 3174 3173 3172 3172 3172 3172 3174 3174 3175 3176 3176 3177 3177 3178 3179 3179 3181 3181 3182 3182 3182
3180 3179 3178 3177 3177 3176 3175 3175 3174 3174 3173 3173 3172 3172 3172 3171 3171 3171 3170 3170 3170 3169 3169 3169 3169 3169 3170 3170 3169 3168 3168 3167 3168 3169 3169 3170 3169 3170 3171 3171 3171 3172 3173 3174 3174 3174 3175 3176 3176 3177 3179 3179 3179 3180 3180 3180 3180 3180 3179 3178 3177 3176 3175 3175 3174 3175 3174 3174 3173 3172 3171 3172 3172 3173 3173 3174 3175 3175 3176 3177 3178 3178 3179 3180 3181 3181 3182 3182
3179 3178 3177 3176 3175 3175 3174 3174 3173 3173 3172 3172 3171 3171 3170 3170 3170 3170 3169 3169 3168 3168 3168 3168 3168 3168 3168 3169 3168 3167 3167 3167 3167 3167 3168 3169 3169 3169 3170 3170 3170 3172 3173 3174 3174 3174 3174 3175 3176 3177 3178 3179 3178 3178 3179 3179 3178 3177 3177 3176 3175 3175 3174 3174 3174 3174 3174 3173 3172 3171 3170 3170 3170 3171 3171 3172 3173 3174 3175 3176 3177 3178 3179 3180 3181 3181 3182 3182
3178 3177 3176 3175 3174 3174 3173 3173 3172 3172 3171 3171 3170 3169 3169 3169 3168 3168 3168 3168 3167 3167 3167 3167 3167 3167 3167 3167 3167 3167 3167 3167 3167 3167 3166 3167 3168 3168 3169 3169 3170 3171 3172 3173 3173 3174 3174 3175 3176 3177 3177 3178 3178 3177 3177 3176 3175 3174 3174 3173 3173 3173 3173 3173 3173 3173 3173 3172 3171 3170 3170 3169 3169 3169 3169 3170 3171 3173 3174 3175 3177 3178 3179 3179 3180 3181 3182 3182
3176 3175 3174 3173 3173 3172 3172 3172 3171 3170 3170 3169 3169 3168 3168 3167 3167 3167 3166 3166 3166 3166 3165 3165 3165 3165 3165 3166 3166 3166 3166 3166 3167 3167 3166 3166 3167 3168 3168 3168 3170 3171 3172 3172 3172 3173 3174 3175 3176 3177 3176 3176 3176 3176 3175 3172 3172 3172 3172 3171 3172 3172 3172 3172 3173 3173 3173 3172 3171 3170 3170 3170 3169 3169 3168 3168 3170 3171 3173 3175 3176 3177 3178 3179 3180 3181 3181 3182
3175 3174 3173 3172 3171 3171 3171 3170 3170 3169 3169 3168 3168 3167 3166 3166 3166 3165 3165 3165 3165 3164 3164 3164 3164 3164 3165 3165 3165 3165 3165 3165 3166 3166 3166 3167 3167 3168 3168 3168 3169 3171 3172 3172 3172 3172 3173 3174 3174 3175 3174 3173 3173 3173 3172 3170 3171 3172 3172 3172 3172 3172 3172 3172 3172 3172 3172 3172 3171 3170 3170 3169 3168 3168 3168 3167 3168 3170 3172 3173 3175 3177 3178 3179 3180 3180 3181 3182
3173 3173 3172 3171 3170 3169 3169 3169 3169 3168 3168 3167 3166 3166 3165 3164 3164 3163 3163 3163 3164 3163 3162 3162 3162 3162 3163 3164 3164 3164 3164 3164 3165 3165 3165 3166 3167 3167 3168 3168 3169 3170 3171 3171 3172 3172 3173 3173 3172 3172 3172 3171 3172 3173 3172 3171 3172 3172 3172 3172 3173 3172 3172 3172 3172 3172 3172 3172 3170 3169 3168 3168 3168 3169 3168 3167 3167 3168 3170 3171 3173 3175 3177 3178 3179 3180 3180 3181
3171 3171 3170 3169 3168 3168 3167 3167 3167 3167 3166 3166 3165 3165 3164 3163 3162 3161 3161 3162 3162 3161 3161 3161 3160 3160 3161 3161 3162 3162 3162 3163 3164 3164 3165 3166 3166 3167 3168 3168 3169 3169 3170 3171 3171 3172 3172 3172 3171 3171 3172 3172 3173 3174 3173 3172 3171 3171 3171 3171 3172 3172 3172 3172 3172 3172 3172 3171 3170 3168 3168 3168 3169 3170 3168 3167 3167 3167 3168 3170 3171 3174 3175 3177 3178 3179 3179 3180
3169 3169 3168 3167 3166 3166 3166 3165 3165 3165 3165 3164 3164 3163 3162 3162 3161 3160 3159 3159 3160 3160 3159 3159 3158 3159 3160 3160 3160 3160 3159 3160 3162 3163 3165 3166 3166 3166 3167 3168 3168 3169 3169 3170 3170 3171 3171 3170 3169 3170 3171 3172 3172 3172 3172 3171 3170 3170 3170 3171 3172 3171 3171 3172 3171 3171 3171 3170 3169 3168 3168 3168 3169 3170 3169 3168 3167 3167 3168 3169 3171 3173 3174 3175 3176 3177 3178 3179
3168 3167 3167 3166 3165 3164 3164 3164 3164 3163 3163 3163 3163 3162 3161 3161 3160 3159 3158 3157 3157 3157 3157 3157 3156 3157 3158 3158 3158 3158 3158 3159 3161 3162 3164 3165 3165 3166 3166 3167 3168 3169 3169 3169 3170 3170 3169 3169 3169 3170 3171 3170 3170 3170 3170 3169 3168 3167 3169 3170 3169 3169 3169 3169 3169 3170 3170 3170 3169 3168 3168 3168 3168 3169 3168 3167 3167 3167 3168 3169 3171 3172 3173 3175 3176 3177 3177 3178
3166 3165 3165 3164 3163 3163 3162 3162 3162 3161 3161 3161 3161 3161 3160 3159 3159 3158 3158 3157 3156 3155 3155 3154 3154 3155 3157 3158 3157 3157 3158 3159 3160 3162 3163 3164 3165 3165 3166 3167 3167 3168 3168 3168 3169 3169 3168 3168 3169 3170 3170 3169 3169 3168 3167 3167 3166 3166 3168 3168 3167 3168 3168 3168 3169 3169 3170 3170 3169 3169 3169 3168 3167 3167 3167 3166 3166 3166 3167 3168 3170 3171 3172 3173 3174 3175 3176 3176
3164 3163 3162 3162 3162 3161 3161 3161 3161 3160 3160 3160 3160 3160 3159 3159 3158 3158 3157 3156 3154 3153 3152 3153 3153 3154 3155 3155 3156 3157 3158 3158 3158 3161 3162 3163 3165 3165 3166 3166 3166 3166 3167 3168 3169 3168 3166 3166 3168 3169 3169 3169 3168 3167 3166 3167 3166 3165 3166 3167 3167 3166 3167 3168 3169 3169 3170 3169 3168 3168 3169 3167 3166 3166 3166 3166 3165 3165 3166 3167 3168 3169 3170 3171 3172 3173 3173 3174
3162 3161 3160 3160 3160 3160 3159 3159 3159 3159 3159 3159 3159 3159 3159 3158 3158 3157 3156 3154 3152 3151 3151 3152 3153 3153 3153 3154 3154 3156 3157 3157 3158 3160 3161 3162 3163 3164 3165 3166 3165 3165 3166 3168 3168 3166 3163 3164 3166 3167 3166 3167 3167 3165 3165 3166 3167 3165 3164 3165 3166 3165 3165 3167 3167 3167 3167 3166 3165 3166 3167 3166 3164 3164 3165 3165 3165 3165 3166 3167 3168 3168 3169 3169 3170 3170 3171 3171
3159 3159 3158 3158 3158 3158 3158 3158 3158 3158 3158 3158 3158 3158 3157 3157 3157 3156 3155 3154 3152 3151 3151 3152 3152 3153 3153 3154 3155 3156 3157 3156 3157 3158 3159 3161 3163 3163 3164 3165 3165 3165 3166 3168 3166 3163 3162 3163 3164 3165 3164 3164 3164 3164 3164 3165 3166 3165 3163 3164 3164 3162 3163 3164 3164 3165 3165 3164 3164 3164 3165 3165 3164 3162 3163 3164 3165 3165 3165 3166 3167 3167 3167 3167 3168 3168 3169 3169
3157 3157 3156 3156 3156 3157 3156 3156 3156 3157 3157 3157 3157 3157 3157 3156 3156 3156 3156 3155 3153 3151 3152 3152 3152 3153 3153 3154 3154 3155 3155 3156 3156 3157 3158 3161 3162 3162 3163 3164 3164 3164 3165 3167 3163 3160 3161 3162 3163 3163 3163 3162 3163 3163 3163 3165 3164 3163 3163 3164 3162 3160 3161 3163 3164 3165 3164 3164 3163 3163 3164 3165 3163 3161 3162 3163 3163 3163 3163 3164 3165 3166 3166 3166 3166 3166 3166 3167
3155 3155 3155 3154 3154 3155 3155 3155 3155 3155 3156 3156 3156 3156 3156 3156 3157 3156 3156 3155 3152 3151 3152 3152 3152 3152 3152 3153 3153 3153 3155 3156 3157 3157 3159 3160 3161 3161 3162 3163 3164 3163 3164 3165 3161 3158 3159 3160 3161 3161 3161 3161 3161 3162 3163 3163 3163 3162 3163 3164 3163 3162 3161 3162 3163 3163 3164 3163 3161 3160 3161 3163 3162 3161 3160 3161 3162 3162 3162 3163 3164 3165 3165 3165 3165 3165 3165 3166
3153 3153 3153 3152 3153 3153 3153 3154 3154 3154 3155 3155 3155 3155 3156 3156 3156 3156 3157 3155 3152 3152 3152 3152 3152 3152 3152 3153 3152 3152 3154 3155 3156 3157 3158 3159 3160 3161 3161 3162 3163 3162 3162 3162 3160 3157 3157 3158 3159 3159 3159 3159 3159 3160 3161 3162 3162 3162 3163 3163 3163 3163 3162 3162 3161 3161 3163 3162 3158 3158 3160 3161 3161 3160 3160 3160 3160 3160 3161 3162 3163 3163 3164 3164 3164 3164 3165 3165
3150 3150 3150 3151 3151 3152 3152 3152 3153 3153 3153 3154 3154 3155 3155 3156 3156 3156 3156 3154 3152 3152 3151 3151 3151 3152 3152 3152 3151 3151 3153 3155 3156 3156 3157 3158 3159 3160 3161 3161 3161 3161 3160 3160 3158 3157 3157 3157 3157 3157 3158 3159 3159 3159 3160 3161 3161 3162 3162 3162 3162 3162 3162 3162 3161 3162 3163 3159 3155 3156 3158 3160 3160 3159 3159 3160 3159 3160 3160 3161 3161 3162 3162 3162 3163 3163 3164 3164
3148 3148 3149 3149 3149 3150 3151 3151 3152 3152 3152 3153 3154 3154 3154 3155 3156 3155 3154 3153 3153 3152 3151 3150 3151 3151 3152 3151 3150 3151 3152 3154 3155 3155 3156 3157 3158 3159 3160 3160 3160 3160 3159 3158 3158 3157 3156 3155 3156 3156 3156 3157 3158 3158 3158 3159 3160 3160 3160 3161 3162 3161 3161 3162 3161 3161 3159 3155 3153 3155 3157 3160 3159 3158 3159 3159 3159 3159 3160 3160 3160 3160 3161 3161 3161 3162 3162 3163
3147 3147 3147 3148 3148 3149 3150 3150 3151 3151 3152 3152 3153 3154 3154 3155 3155 3154 3154 3154 3153 3153 3152 3151 3151 3151 3152 3151 3150 3150 3151 3153 3154 3154 3155 3156 3157 3157 3158 3158 3159 3159 3158 3157 3157 3156 3154 3153 3154 3155 3154 3155 3156 3156 3156 3157 3158 3158 3158 3159 3159 3160 3162 3162 3161 3160 3157 3154 3153 3154 3157 3159 3158 3158 3158 3158 3158 3158 3159 3159 3159 3160 3160 3161 3161 3161 3161 3162
3146 3146 3147 3147 3147 3148 3149 3150 3150 3151 3151 3152 3152 3153 3154 3154 3154 3154 3155 3155 3154 3153 3153 3152 3151 3152 3152 3150 3150 3149 3150 3152 3153 3154 3155 3156 3156 3156 3156 3156 3156 3157 3157 3157 3156 3156 3156 3153 3151 3152 3152 3153 3154 3154 3154 3156 3157 3157 3157 3157 3157 3156 3158 3159 3158 3158 3156 3154 3153 3155 3157 3158 3157 3157 3157 3157 3157 3157 3158 3158 3158 3159 3160 3160 3160 3160 3160 3161
3146 3146 3146 3146 3146 3147 3148 3149 3150 3150 3151 3151 3152 3153 3153 3154 3154 3154 3154 3154 3153 3151 3151 3152 3152 3152 3151 3150 3150 3150 3150 3150 3151 3152 3152 3152 3152 3152 3152 3153 3154 3155 3155 3156 3155 3155 3155 3152 3149 3150 3150 3149 3150 3152 3153 3155 3155 3155 3155 3156 3155 3154 3155 3155 3155 3155 3154 3153 3153 3154 3155 3156 3156 3156 3156 3156 3156 3156 3157 3157 3157 3158 3158 3159 3158 3159 3159 3160
3146 3146 3146 3146 3146 3147 3148 3148 3149 3150 3150 3151 3151 3152 3153 3154 3154 3154 3154 3153 3152 3151 3150 3151 3152 3152 3152 3152 3152 3152 3152 3151 3151 3150 3149 3150 3149 3149 3150 3151 3152 3153 3153 3153 3153 3153 3153 3149 3146 3148 3147 3146 3148 3150 3152 3153 3153 3154 3154 3153 3154 3155 3155 3154 3153 3154 3153 3153 3154 3154 3154 3156 3156 3155 3155 3155 3155 3155 3156 3156 3157 3157 3157 3157 3157 3157 3158 3159
3147 3147 3147 3147 3146 3147 3147 3148 3149 3149 3150 3151 3151 3152 3153 3154 3154 3154 3153 3153 3153 3153 3151 3150 3150 3151 3152 3152 3152 3153 3152 3151 3152 3150 3149 3149 3148 3147 3148 3148 3149 3150 3150 3150 3150 3151 3151 3148 3145 3146 3146 3145 3147 3150 3151 3151 3151 3152 3152 3152 3153 3154 3154 3153 3153 3152 3152 3154 3156 3154 3154 3155 3155 3154 3154 3154 3154 3155 3155 3155 3156 3156 3156 3156 3156 3156 3157 3158
3149 3148 3148 3147 3147 3147 3148 3148 3149 3149 3150 3151 3152 3153 3153 3153 3154 3155 3153 3152 3152 3153 3151 3150 3150 3150 3151 3151 3151 3151 3151 3150 3151 3151 3150 3150 3148 3145 3146 3146 3147 3148 3148 3149 3149 3149 3150 3148 3144 3145 3145 3144 3146 3149 3149 3150 3150 3150 3150 3151 3152 3152 3151 3151 3151 3151 3151 3154 3155 3155 3155 3154 3153 3152 3152 3152 3153 3154 3154 3154 3155 3155 3155 3155 3155 3156 3157 3158
3150 3150 3149 3148 3148 3148 3149 3149 3150 3150 3151 3151 3152 3153 3153 3154 3154 3155 3154 3152 3152 3152 3151 3151 3150 3149 3149 3151 3151 3151 3150 3151 3151 3151 3151 3151 3148 3145 3146 3146 3145 3145 3146 3147 3146 3146 3148 3147 3144 3143 3144 3145 3146 3147 3147 3147 3148 3149 3149 3150 3150 3150 3150 3149 3149 3148 3148 3151 3154 3157 3157 3154 3151 3151 3150 3151 3151 3152 3153 3153 3154 3154 3154 3154 3155 3156 3157 3158
3150 3150 3149 3148 3148 3149 3149 3150 3150 3150 3151 3152 3152 3152 3153 3153 3153 3153 3154 3153 3152 3151 3151 3151 3150 3149 3148 3148 3150 3150 3149 3149 3150 3150 3150 3150 3148 3147 3147 3146 3144 3144 3144 3144 3144 3144 3146 3146 3144 3143 3144 3145 3144 3144 3144 3145 3146 3146 3147 3147 3147 3148 3147 3147 3147 3145 3145 3147 3151 3155 3155 3151 3149 3150 3150 3150 3151 3151 3152 3152 3153 3153 3153 3154 3154 3155 3156 3157
3151 3150 3149 3149 3149 3150 3151 3151 3151 3151 3151 3152 3151 3151 3151 3151 3151 3151 3152 3152 3152 3151 3150 3150 3150 3149 3148 3147 3148 3148 3147 3147 3147 3148 3148 3148 3148 3147 3146 3145 3144 3143 3142 3142 3142 3142 3143 3143 3142 3141 3143 3143 3143 3143 3144 3145 3146 3146 3145 3145 3145 3146 3145 3145 3146 3144 3144 3145 3146 3149 3149 3148 3148 3150 3150 3151 3151 3151 3151 3152 3152 3152 3152 3153 3154 3155 3156 3157
3151 3151 3150 3150 3149 3151 3152 3152 3151 3151 3151 3150 3150 3150 3150 3151 3151 3150 3150 3150 3150 3150 3149 3149 3149 3149 3148 3147 3146 3146 3146 3145 3145 3146 3146 3146 3147 3146 3143 3143 3143 3140 3139 3139 3139 3139 3140 3140 3140 3139 3140 3141 3142 3144 3144 3145 3145 3144 3144 3144 3144 3144 3144 3144 3144 3143 3143 3143 3143 3144 3146 3146 3148 3149 3150 3151 3152 3151 3151 3151 3151 3151 3152 3152 3153 3154 3155 3156
3152 3152 3151 3150 3149 3150 3151 3151 3150 3150 3150 3150 3150 3150 3150 3151 3150 3149 3149 3149 3148 3147 3147 3148 3148 3148 3147 3146 3145 3146 3146 3144 3144 3144 3143 3143 3143 3142 3141 3140 3141 3139 3138 3138 3137 3138 3138 3138 3137 3137 3137 3139 3140 3142 3143 3144 3144 3143 3142 3142 3142 3142 3142 3143 3142 3142 3142 3142 3142 3144 3146 3147 3147 3148 3149 3150 3151 3151 3151 3151 3151 3151 3151 3152 3153 3153 3154 3155
3153 3152 3152 3151 3150 3149 3150 3149 3149 3150 3149 3149 3149 3150 3150 3150 3149 3149 3149 3147 3145 3145 3146 3146 3146 3145 3145 3143 3143 3144 3145 3144 3142 3140 3140 3140 3140 3140 3140 3139 3139 3139 3138 3138 3136 3136 3136 3135 3135 3135 3136 3137 3138 3139 3141 3141 3142 3141 3140 3140 3141 3141 3142 3142 3142 3141 3141 3140 3141 3143 3146 3146 3146 3147 3147 3148 3150 3150 3150 3150 3150 3150 3151 3152 3152 3152 3153 3153
3153 3152 3152 3152 3151 3150 3150 3150 3150 3150 3149 3149 3149 3149 3149 3149 3149 3149 3148 3145 3144 3145 3146 3145 3144 3143 3142 3141 3141 3142 3143 3142 3139 3137 3137 3137 3137 3137 3137 3137 3138 3138 3138 3137 3136 3134 3133 3132 3133 3133 3135 3136 3137 3137 3138 3139 3139 3139 3138 3138 3140 3140 3140 3140 3140 3139 3139 3139 3139 3140 3142 3143 3144 3145 3146 3147 3148 3148 3148 3149 3149 3149 3150 3151 3152 3152 3152 3152
3153 3152 3152 3152 3151 3151 3150 3150 3150 3150 3149 3149 3149 3149 3148 3148 3148 3147 3145 3143 3144 3145 3145 3143 3143 3142 3142 3141 3139 3139 3139 3138 3137 3135 3134 3133 3133 3134 3135 3135 3135 3135 3135 3136 3135 3133 3132 3131 3131 3131 3132 3134 3135 3136 3137 3137 3137 3137 3137 3137 3138 3138 3139 3138 3137 3137 3137 3138 3137 3137 3138 3140 3141 3142 3144 3145 3146 3146 3146 3147 3147 3148 3149 3150 3151 3151 3151 3152
3152 3152 3151 3151 3151 3151 3151 3151 3151 3150 3149 3149 3148 3148 3147 3146 3144 3143 3143 3143 3143 3144 3143 3141 3141 3142 3141 3140 3139 3137 3136 3135 3135 3134 3132 3131 3130 3131 3133 3134 3134 3133 3134 3135 3134 3133 3132 3132 3131 3131 3130 3131 3133 3134 3135 3135 3135 3136 3136 3136 3136 3136 3136 3136 3135 3135 3135 3135 3134 3134 3136 3137 3138 3140 3141 3143 3144 3144 3145 3145 3146 3147 3148 3149 3150 3151 3151 3151
3152 3151 3151 3151 3150 3150 3150 3150 3150 3149 3148 3148 3147 3147 3146 3144 3142 3142 3142 3142 3142 3142 3141 3140 3141 3142 3141 3140 3139 3137 3135 3133 3132 3132 3131 3129 3128 3128 3128 3130 3132 3132 3132 3134 3134 3133 3132 3132 3132 3132 3131 3130 3131 3132 3133 3133 3133 3134 3134 3135 3134 3134 3134 3133 3133 3133 3133 3132 3132 3133 3134 3135 3136 3138 3139 3140 3141 3142 3143 3144 3144 3145 3146 3148 3149 3150 3150 3151
3151 3151 3150 3150 3149 3149 3149 3149 3148 3147 3146 3146 3146 3146 3145 3143 3142 3142 3142 3141 3141 3141 3141 3140 3140 3141 3141 3140 3140 3139 3136 3133 3131 3130 3129 3128 3127 3126 3125 3126 3128 3130 3131 3132 3134 3133 3131 3130 3130 3130 3128 3128 3128 3129 3130 3131 3131 3132 3132 3132 3132 3132 3132 3131 3130 3130 3131 3131 3131 3131 3131 3132 3134 3136 3138 3140 3141 3141 3142 3143 3143 3143 3144 3146 3148 3149 3149 3150
3151 3151 3150 3150 3149 3149 3148 3147 3146 3146 3145 3144 3144 3144 3143 3142 3142 3142 3142 3141 3141 3140 3140 3139 3139 3139 3139 3139 3139 3138 3136 3135 3133 3130 3128 3128 3127 3126 3125 3124 3124 3126 3129 3131 3132 3132 3131 3129 3128 3128 3126 3125 3126 3126 3127 3129 3129 3129 3130 3130 3130 3130 3130 3128 3127 3128 3129 3130 3130 3130 3130 3131 3134 3136 3137 3139 3140 3140 3140 3140 3142 3142 3143 3144 3146 3147 3148 3149
3151 3150 3150 3149 3149 3148 3147 3146 3145 3144 3143 3143 3143 3143 3142 3142 3141 3141 3142 3142 3141 3139 3138 3137 3137 3136 3136 3135 3134 3133 3133 3133 3132 3130 3129 3128 3127 3126 3126 3124 3124 3125 3127 3128 3129 3131 3131 3129 3127 3127 3125 3123 3124 3124 3124 3126 3127 3127 3129 3129 3129 3129 3128 3127 3127 3127 3128 3129 3130 3130 3130 3130 3133 3135 3136 3137 3138 3138 3138 3139 3140 3141 3142 3143 3144 3145 3146 3148
3150 3149 3149 3148 3148 3147 3147 3146 3144 3143 3143 3142 3142 3142 3141 3141 3140 3140 3140 3140 3139 3138 3137 3136 3134 3133 3132 3131 3130 3129 3129 3129 3128 3127 3127 3127 3126 3125 3125 3124 3125 3125 3126 3126 3127 3128 3130 3129 3127 3127 3126 3123 3123 3123 3123 3124 3125 3126 3127 3128 3128 3128 3128 3127 3127 3128 3128 3129 3128 3128 3128 3130 3132 3133 3133 3135 3136 3136 3138 3139 3139 3141 3141 3142 3143 3144 3146 3147